Weather in Zadubrovskiy

Russia / Kemerovo Oblast     54°25′54″N   86°36′44″E
temp.,
°C
wind,
m/s
gust,
m/s
humid.,
%
clouds,
%
prec.,
mm/h
press.,
hPa
HPBL,
m
9 may, sun
sun901:00+10w358595 0.9 1015108
04:00+8n378128 0.0 1016196
07:00+6n47724 0.0 1018376
10:00+9nnw45535 0.0 1018976
13:00+11nnw56405 0.0 10181678
16:00+13n663586 0.0 10182180
19:00+10nne77416 0.0 10191596
22:00+6nne36565 0.0 1021138
10 may, mon
mon1001:00+5nne512680 0.0 1022390
04:00+3ne512810 0.0 1021387
07:00+3ne46750 0.0 1022257
10:00+9ene34480 0.0 1022820
13:00+14ene45330 0.0 10201404
16:00+16ene56300 0.0 10181805
19:00+15ene67341 0.0 10171985
22:00+9ene411515 0.0 1017265
11 may, tue
tue1101:00+8ne61359100 0.0 1016411
04:00+6ne5126597 0.0 1014360
07:00+7ne6116392 0.0 1014398
10:00+13ne5641100 0.0 10131006
13:00+17ne66311 0.0 10121760
16:00+18ne78265 0.0 10112523
19:00+18ne573196 0.0 10122750
22:00+12nne814515 0.0 1015645
12 may, wed
wed1201:00+9nne7147445 0.0 1015452
04:00+8n5128390 0.0 1015346
07:00+8n5884100 0.6 1016327
10:00+13n556191 0.3 1016624
13:00+17nne5539100 0.8 10152084
16:00+17nne6635100 0.0 10142487
19:00+16ne5743100 0.0 10151929
22:00+11nne51057100 0.0 1017271
13 may, thu
thu1301:00+9nne4105991 0.0 1018201
04:00+7nne346295 0.0 101866
07:00+8n2461100 0.0 1019122
10:00+14n343858 0.0 10181276
13:00+16nnw44325 0.0 10172085
16:00+17nw3428100 0.0 10152557
19:00+16w553272 0.0 10152251
22:00+11wsw495246 0.0 1016180